User: anonymous   Login
Location: Follega
(52.8850°N, 5.7362°E)
Time: 02:51:59
(UTC+00:00)
Language:

ERS-1 Rocket - Orbit

View from above orbital plane
View from above orbital plane
View from above satellite
View from above satellite

Ground track
Ground track

The orbit data is extracted from the following two-line orbital elements,

1 21610U 91050F   20221.84876406 -.00000001 +00000-0 +13300-4 0  9998
2 21610 098.4623 290.5548 0004466 101.0517 031.7157 14.40910253525243
Epoch (UTC): 08 August 2020 20:22:13
Eccentricity: 0.0004466
inclination: 98.4623°
perigee height: 752 km
apogee height: 758 km
right ascension of ascending node: 290.5548°
argument of perigee: 101.0517°
revolutions per day: 14.40910253
mean anomaly at epoch: 31.7157°
orbit number at epoch: 52524

The dashed part of the orbit path shows where the satellite is in the earth's shadow,  

DLR